sat.trackr.live / text

‹ back to catalog

STARLINK-32771

NORAD 62573 · 2025-006V

PAYLOAD ACTIVE UNKNOWN

§ Identity

Operator
Country
US
Launch date
2025-01-10
Launch site
AFETR
Launch vehicle
Mass (kg)
RCS (m²)

Purposes: comms

External: N2YO · Heavens-Above · Gunter

§ Orbital elements

Epoch: 2026-09-21T07:30:57.944160Z

Period
94.27 min
Inclination
42.9992°
Eccentricity
0.0001178
Mean motion
15.27587002 rev/d
Perigee alt
482.2 km
Apogee alt
483.8 km
Semi-major
6,861.2 km
B*
3.6734e-4
RAAN
267.5412°
Arg perigee
275.4095°
Mean anomaly
84.6622°
Rev number
9,478

§ Raw data

STARLINK-327711 62573U 25006V   26264.31317065  .00009862  00000+0  36734-3 0  99922 62573  42.9992 267.5412 0001178 275.4095  84.6622 15.27587002 94789

JSON: /api/v1/satellites/62573 · /tle

For live sub-satellite position, see the globe view (requires WebGL).

§ Visibility from observer

Set your observer location to see the next 7 days of passes ≥ 10°. The values pass through the URL so the page stays shareable.

No JS? Fill the form by hand. The geolocation button needs JavaScript.